Marshfield, WI

7:44 AM CDT on August 26, 2016 (GMT -0500)
Marshfield Municipal

Weather History for KMFI - August, 2014

Change the Weather History Date:

Saturday, August 2, 2014

  Actual Average Record
Temperature  
Mean Temperature 68 °F -  
Max Temperature 81 °F 81 °F 102 °F (1988)
Min Temperature 55 °F 57 °F 39 °F (1920)
Cooling Degree Days 3    
Growing Degree Days 18 (Base 50)    
Moisture  
Dew Point 58 °F    
Average Humidity 87    
Maximum Humidity 100    
Minimum Humidity 50    
Precipitation  
Precipitation 0.00 in - - ()
Sea Level Pressure  
Sea Level Pressure 30.13 in    
Wind  
Wind Speed 1 mph (SSW)    
Max Wind Speed 13 mph    
Max Gust Speed 18 mph    
Visibility 4 miles    
Events Fog , Rain , Thunderstorm    
Averages and records for this station are not official NWS values.
T = Trace of Precipitation, MM = Missing Value Source: NWS Daily Summary

Daily Weather History Graph

Daily Weather History Graph

Search for Another Location

Airport or City:

Trip Planner

Search our weather history database for the weather conditions in past years. The results will help you decide how hot, cold, wet, or windy it might be!

Date:

Astronomy

Aug. 02, 2014 Rise Set
Actual Time 5:48 AM CDT 8:24 PM CDT
Civil Twilight 5:14 AM CDT 8:58 PM CDT
Nautical Twilight 4:33 AM CDT 9:39 PM CDT
Astronomical Twilight 3:44 AM CDT 10:27 PM CDT
Moon 12:27 PM CDT (8/2) 11:25 PM CDT (8/2)
Length of Visible Light 15h 43m
Length of Day
14h 36m
Waxing Crescent, 37% of the Moon is Illuminated
Aug 2
Waxing Crescent
Aug 3
First Quarter
Aug 10
Full
Aug 17
Last Quarter
Aug 25
New

Hourly Weather History & Observations

Time (CDT) Temp. Heat Index Dew Point Humidity Pressure Visibility Wind Dir Wind Speed Gust Speed Precip Events Conditions
12:19 AM 57.9 °F - 57.0 °F 97% 30.11 in 2.5 mi Calm Calm - N/A   Clear
12:30 AM 57.9 °F - 57.0 °F 97% 30.11 in 1.0 mi Calm Calm - N/A   Clear
12:33 AM 57.9 °F - 57.0 °F 97% 30.11 in 0.5 mi Calm Calm - N/A Fog Fog
12:47 AM 57.9 °F - 57.0 °F 97% 30.12 in 1.0 mi Calm Calm - N/A   Clear
12:54 AM 59.0 °F - 57.0 °F 93% 30.11 in 0.5 mi Calm Calm - N/A Fog Fog
1:31 AM 57.9 °F - 55.9 °F 93% 30.12 in 1.2 mi Calm Calm - N/A   Clear
1:34 AM 57.9 °F - 55.9 °F 93% 30.11 in 4.0 mi Calm Calm - N/A   Clear
1:38 AM 57.0 °F - 55.9 °F 96% 30.11 in 1.5 mi Calm Calm - N/A   Clear
1:41 AM 57.9 °F - 55.9 °F 93% 30.12 in 0.8 mi Calm Calm - N/A   Clear
1:54 AM 55.9 °F - 54.0 °F 93% 30.11 in 1.2 mi Calm Calm - N/A   Clear
2:24 AM 57.0 °F - 55.9 °F 96% 30.11 in 1.8 mi Calm Calm - N/A   Clear
2:33 AM 57.0 °F - 55.9 °F 96% 30.11 in 3.0 mi Calm Calm - N/A   Clear
2:54 AM 57.0 °F - 55.9 °F 96% 30.12 in 3.0 mi Calm Calm - N/A   Clear
2:57 AM 57.0 °F - 55.9 °F 96% 30.12 in 1.8 mi Calm Calm - N/A   Clear
3:12 AM 57.0 °F - 55.9 °F 96% 30.12 in 0.8 mi Calm Calm - N/A   Clear
3:34 AM 55.9 °F - 55.0 °F 97% 30.13 in 1.0 mi South 8.1 mph 18.4 mph N/A   Mist
3:36 AM 57.0 °F - 55.9 °F 96% 30.13 in 2.0 mi South 6.9 mph 18.4 mph N/A   Partly Cloudy
3:54 AM 55.9 °F - 55.0 °F 97% 30.13 in 5.0 mi South 3.5 mph - N/A   Clear
4:25 AM 55.0 °F - 54.0 °F 96% 30.14 in 1.8 mi SSE 3.5 mph - N/A   Clear
4:34 AM 55.0 °F - 54.0 °F 96% 30.13 in 3.0 mi Calm Calm - N/A   Clear
4:54 AM 55.9 °F - 55.0 °F 97% 30.14 in 5.0 mi Calm Calm - N/A   Clear
5:20 AM 55.0 °F - 54.0 °F 96% 30.14 in 1.0 mi Calm Calm - N/A   Clear
5:28 AM 55.0 °F - 54.0 °F 96% 30.14 in 0.8 mi Calm Calm - N/A   Clear
5:30 AM 55.0 °F - 54.0 °F 96% 30.14 in 1.2 mi Calm Calm - N/A   Clear
5:43 AM 55.9 °F - 54.0 °F 93% 30.14 in 3.0 mi Calm Calm - N/A   Clear
5:48 AM 55.4 °F - 53.6 °F 94% 30.14 in 1.8 mi Calm Calm - N/A   Clear
5:54 AM 55.0 °F - 54.0 °F 96% 30.14 in 1.0 mi Calm Calm - N/A   Clear
6:10 AM 55.0 °F - 53.1 °F 93% 30.14 in 0.2 mi Calm Calm - N/A Fog Fog
6:24 AM 55.0 °F - 54.0 °F 96% 30.15 in 1.8 mi Calm Calm - N/A   Clear
6:26 AM 55.0 °F - 54.0 °F 96% 30.15 in 3.0 mi Calm Calm - N/A   Clear
6:54 AM 55.9 °F - 55.9 °F 100% 30.17 in 4.0 mi Calm Calm - N/A   Clear
7:54 AM 61.0 °F - 60.1 °F 97% 30.17 in 5.0 mi Calm Calm - N/A   Clear
8:54 AM 66.9 °F - 60.1 °F 79% 30.16 in 8.0 mi East 3.5 mph - N/A   Clear
9:54 AM 71.1 °F - 62.1 °F 73% 30.16 in 8.0 mi ESE 3.5 mph - N/A   Clear
10:54 AM 75.0 °F - 62.1 °F 64% 30.16 in 8.0 mi East 5.8 mph - N/A   Clear
11:54 AM 75.9 °F - 64.0 °F 67% 30.15 in 8.0 mi SSW 5.8 mph - N/A   Clear
12:54 PM 78.1 °F - 61.0 °F 56% 30.14 in 8.0 mi Variable 3.5 mph - N/A   Clear
1:54 PM 80.1 °F 81.1 °F 61.0 °F 52% 30.14 in 8.0 mi South 9.2 mph - N/A   Partly Cloudy
2:54 PM 81.0 °F 81.7 °F 61.0 °F 50% 30.12 in 8.0 mi South 5.8 mph - N/A   Clear
3:54 PM 79.0 °F - 60.1 °F 52% 30.10 in 8.0 mi South 6.9 mph - N/A   Scattered Clouds
4:54 PM 73.9 °F - 61.0 °F 64% 30.11 in 9.0 mi West 12.7 mph - N/A   Scattered Clouds
5:14 PM 71.1 °F - 57.9 °F 63% 30.12 in 10.0 mi WSW 10.4 mph - N/A Thunderstorm Mostly Cloudy
5:29 PM 71.1 °F - 61.0 °F 70% 30.12 in 9.0 mi SW 9.2 mph - N/A   Overcast
5:54 PM 70.0 °F - 63.0 °F 78% 30.11 in 8.0 mi WSW 5.8 mph - 0.00 in Rain Light Rain
6:54 PM 73.0 °F - 63.0 °F 71% 30.10 in 9.0 mi Calm Calm - 0.00 in   Overcast
7:54 PM 71.1 °F - 64.9 °F 81% 30.10 in 7.0 mi SSW 3.5 mph - N/A   Clear
8:54 PM 68.0 °F - 64.0 °F 87% 30.10 in 7.0 mi Calm Calm - N/A   Scattered Clouds
9:54 PM 66.9 °F - 63.0 °F 87% 30.11 in 7.0 mi Calm Calm - N/A   Partly Cloudy
10:54 PM 66.0 °F - 63.0 °F 90% 30.10 in 8.0 mi SSW 4.6 mph - N/A   Clear
11:54 PM 64.9 °F - 63.0 °F 93% 30.10 in 6.0 mi SW 4.6 mph - N/A   Clear